Погода в Херсоне

Хотите узнать прогноз погоды в Херсоне? Тогда Вам сюда: Погода в Херсоне

Поиск расширенной информации на нашем сайте:

Полезная информация:

Новости сайта



02.01.2020
Опубликован Долгосрочный прогноз погоды по городам России и ближнего зарубежья на январь 2020 года.
Карты: Прогноз на январь и февраль 2020 года, Сравнение прогнозируемой аномалии приземной температуры воздуха на январь 2020 года по разным моделям.




Погода в Херсоне - сегодня

Время (UTC), дата Ветер
(°,м/с) 
Видим.   Явления Облачность Т
(°С)
Тd
(°С)
f(%) Тe
(°С)
Pmin
(гПа)
dP
(гПа)
Po
(мм)
O2
(г/м3)
Тmin Tmax R s Состояние
почвы
12 03.03.21 310 (СЗ) 20000 м    9/9 600 м кучево-дожд. 
[Cb calv]
+9 -2.6 44 +7  1027  0.1  766  299           
15 03.03.21 320 (СЗ) 20000 м    4/3 600 м средняя 
[Cu hum|Ac lent]
+7 -1.7 54 +5  1026.9  0.1  766  301           
18 03.03.21 300 (СЗ) 10 км    ясно 
+1 -1.9 81 -1  1027.8  0.7  766  308           
21 03.03.21 тихо ()   4000 м  дымка  ясно 
-0.8 -1.4 96 -1  1027.4  -0.4  766  310           
00 04.03.21 170 (Ю) 4000 м  дымка  ясно 
+0.2 -1 92 -1  1026.4  -1  765  308           
03 04.03.21 180 (Ю) 4000 м  дымка  ясно 
+0.1 -0.5 96 -1  1024  -2.3  763  308           
06 04.03.21 190 (Ю) 10 км    ясно 
+3.6 +0.4 80 +2  1022.3  -1.7  762  303  -1.4    240    мокрая 
09 04.03.21 200 (Ю) 20000 м    5/0 верхняя 
[Ci]
+8.6 +0.3 56 +7  1020.5  -1.6  761  297           
12 04.03.21 200 (Ю) 20000 м    8/0 верхняя 
[Ci ing]
+8.6 +0.9 58 +7  1017.7  -2.8  759  296           
15 04.03.21 180 (Ю) 20000 м    8/0 верхняя 
[Ci fib]
+7.7 +1.8 66 +6  1015.4  -2.3  757  296           
18 04.03.21 180 (Ю) 4000 м  дымка  6/6 600 м 
[Sc]
+5.3 +4.1 92 +3  1014.4  -1.1  756  298    +10       
21 04.03.21 190 (Ю) 4000 м  дымка  8/8 600 м 
[Sc]
+5.9 +4.7 92 +4  1013.4  -1  756  297           
00 05.03.21 190 (Ю) 4000 м  дымка  10/10 600 м 
[Sc]
+5.3 +4.6 95 +4  1012.5  -0.9  755  298           
03 05.03.21 180 (Ю) 4000 м  дымка  10/10 600 м 
[Sc]
+4.8 +4.1 95 +4  1011.9  -0.6  754  298           
06 05.03.21 180 (Ю) 4000 м  дымка  10/10 600 м 
[Sc]
+6.1 +5.2 94 +6  1012.1  0.3  755  297  +4.7         
09 05.03.21 150 (ЮВ) 10 км    10/0 средняя, верхняя 
[Ac lent|Cs]
+8.1 +5.2 82 +9  1012.1  755  294           
12 05.03.21 050 (СВ) 20000 м    10/3 600 м средняя, верхняя 
[Cu med, cong|Ac cuf|Cs]
+11.3 +1.9 52 +12  1011.3  -0.7  754  292           
15 05.03.21 350 (С) 20000 м    10/3 600 м кучево-дожд., средняя, верхняя 
[Cb calv|Ac cuf|Cs]
+10.7 +1.7 54 +10  1011.8  0.5  755  292           
18 05.03.21 040 (СВ) 10 км    10/3 600 м средняя, верхняя 
[Sc diur, vesp|Ac lent|Cs]
+6.4 +2.2 74 +5  1013.1  1.2  755  297           
21 05.03.21 070 (В) 10 км    10/4 600 м средняя, верхняя 
[Sc|Ac lent|Cs]
+4.4 +1.6 82 +3  1013.7  0.5  756  299           
00 06.03.21 090 (В) 10 км  слаб. ливневой дождь  10/8 600 м кучево-дожд., средняя 
[Cb cap|Ac cuf]
+3.7 +1.4 85 +3  1013.4  -0.3  756  300      0.0     
03 06.03.21 350 (С) 2000 м  в посл. час ливневой дождь  10/10 600 м кучево-дожд. 
[Cb calv]
+3.9 +3.2 95 +2  1012.8  -0.6  755  299           
06 06.03.21 010 (С) 2000 м  дымка{ливн. осадки}  10/9 600 м кучево-дожд., средняя 
[Cb calv|Ac cuf]
+1.4 +0.6 94 -3  1016.2  3.3  758  304  +1.3    0.3     
09 06.03.21 010 (С) 10  10 км    10/8 600 м кучево-дожд., средняя 
[Cb calv|Ac cuf]
+1.6 -2.5 74 -3  1019.9  3.7  760  305           
12 06.03.21 340 (С) 10 км    8/6 600 м средняя, верхняя 
[Cu med, cong|Ac cuf|Ci sp]
+3.6 -5.8 50 1021.8  1.9  762  304           
Время (UTC), дата Ветер
(°,м/с) 
Видим.   Явления Облачность Т
(°С)
Тd
(°С)
f(%) Тe
(°С)
Pmin
(гПа)
dP
(гПа)
Po
(мм)
O2
(г/м3)
Тmin Tmax R s Состояние
почвы

Для получения пояснительной информации подведите курсор к названию столбца.

ПОГОДА в Херсоне - архив

Всё, что Вы хотите узнать о погоде в Херсоне - удобно и подробно!

Выберите нужную дату (начиная с 1 января 2019* года) и нажмите кнопку "Найти".
Будут отображены архивные сводки погоды по пункту Херсон, начиная с указанной даты.


Отображать данные в формате CSV (для использования в таблицах Excel)


Внимание! Наш архив погоды предназначен исключительно для личного некоммерческого использования в познавательных целях. Если Вам необходимы официальные справки о состоянии погоды (для производственных, юридических, коммерческих и т.п. целей), обращайтесь в органы Росгидромета.

*Примечание: данная дата относится к архиву по метеостанциям СССР (Россия, СНГ, Балтия).
Архив по метеостанциям Зарубежной Европы и Азии (кроме Китая) хранится 10 дней, по другим регионам земного шара (Китай, Африка, Америка, Австралия, Океания) - 1 день.

Херсон - район местоположения метеостанции


Название, широта, долгота, высота метеостанции:
Херсон 46.6°ш. 32.6°д. 54 м над ур. моря [Украина]

Дополнительная информация

В oтличие oт бoльшинства пoгoдных сайтoв мы публикуем пoдрoбную метеoинфoрмацию в детальнoм прoфессиoнальнoм фoрмате.

Характеристики температуры и влажнoсти вoздуха измеряются на высoте 2 м в тени вдали oт зданий и деревьев.
Скoрoсть ветра измеряется на высoте 10 м (на урoвне рoста челoвека скoрoсть ветра ниже в 1.5-2 раза). Если метеoстанция нахoдится в гoрoде или в лесу, тo скoрoсть ветра занижена на 2-4 м/с пo сравнению с oткрытым местoм. Скoрoсть ветра над акватoриями крупных рек и oзёр, а также на вершинах хoлмoв на 2-5 м/с выше, чем в oбычных услoвиях.
Атмoсфернoе давление в разных тoчках местнoсти мoжет значительнo oтличаться oт давления на метеoстанции, в зависимoсти oт услoвий рельефа (при пoдъёме на 10 м давление пoнижается примернo на 1 мм рт.ст.).